TimeCDT,TemperatureF,Dew PointF,Humidity,Sea Level PressureIn,VisibilityMPH,Wind Direction,Wind SpeedMPH,Gust SpeedMPH,PrecipitationIn,Events,Conditions,WindDirDegrees,DateUTC
12:56 AM,66.9,61.9,84,29.76,10.0,SSW,24.2,29.9,N/A,,Clear,210,2013-06-01 05:56:00
1:19 AM,66.2,62.6,88,29.79,10.0,WSW,12.7,34.5,0.00,Rain,Light Rain,240,2013-06-01 06:19:00
1:56 AM,64.9,61.9,90,29.73,10.0,SW,19.6,27.6,0.03,Rain,Light Rain,220,2013-06-01 06:56:00
2:56 AM,64.9,61.0,87,29.65,10.0,South,20.7,29.9,0.00,Rain,Light Rain,170,2013-06-01 07:56:00
3:21 AM,64.4,60.8,88,29.74,10.0,WSW,11.5,-,0.00,,Clear,240,2013-06-01 08:21:00
3:56 AM,63.9,61.0,90,29.73,10.0,SW,13.8,-,0.00,,Clear,230,2013-06-01 08:56:00
4:56 AM,63.0,61.0,93,29.74,10.0,SSW,11.5,-,N/A,,Clear,210,2013-06-01 09:56:00
5:56 AM,61.9,61.0,97,29.75,10.0,South,8.1,-,N/A,,Clear,190,2013-06-01 10:56:00
6:56 AM,63.9,61.9,93,29.77,10.0,SSW,15.0,-,N/A,,Clear,200,2013-06-01 11:56:00
7:56 AM,64.9,61.9,90,29.77,10.0,South,16.1,-,N/A,,Clear,190,2013-06-01 12:56:00
8:56 AM,65.8,63.0,90,29.77,10.0,SSW,26.5,29.9,N/A,,Mostly Cloudy,200,2013-06-01 13:56:00
9:56 AM,66.9,63.9,90,29.78,10.0,SSW,23.0,29.9,N/A,,Overcast,200,2013-06-01 14:56:00
10:45 AM,69.8,64.4,83,29.79,10.0,SSW,23.0,28.8,N/A,,Overcast,200,2013-06-01 15:45:00
10:56 AM,70.0,63.9,81,29.76,10.0,SSW,24.2,28.8,N/A,,Overcast,200,2013-06-01 15:56:00
11:56 AM,70.0,64.9,84,29.76,10.0,SSW,18.4,-,N/A,,Overcast,200,2013-06-01 16:56:00
12:56 PM,70.9,64.9,81,29.75,10.0,SSW,20.7,27.6,N/A,,Overcast,210,2013-06-01 17:56:00
1:56 PM,72.9,65.8,79,29.74,10.0,SSW,21.9,28.8,N/A,,Mostly Cloudy,200,2013-06-01 18:56:00
2:56 PM,72.9,64.9,76,29.73,10.0,SSW,21.9,29.9,N/A,,Mostly Cloudy,200,2013-06-01 19:56:00
2:59 PM,73.4,64.4,73,29.75,10.0,SSW,26.5,29.9,N/A,,Mostly Cloudy,210,2013-06-01 19:59:00
3:56 PM,72.9,64.9,76,29.73,10.0,SSW,20.7,27.6,N/A,,Mostly Cloudy,210,2013-06-01 20:56:00
4:56 PM,72.9,64.9,76,29.71,10.0,SSW,21.9,29.9,0.00,,Mostly Cloudy,210,2013-06-01 21:56:00
5:56 PM,72.0,65.8,81,29.70,10.0,SSW,17.3,23.0,0.00,,Mostly Cloudy,200,2013-06-01 22:56:00
5:58 PM,71.6,66.2,83,29.73,10.0,SSW,15.0,23.0,0.00,,Mostly Cloudy,200,2013-06-01 22:58:00
5:59 PM,71.6,66.2,83,29.73,10.0,SSW,17.3,23.0,0.00,Rain-Thunderstorm,Light Thunderstorms and Rain,200,2013-06-01 22:59:00
6:00 PM,71.6,66.2,83,29.73,3.0,SSW,19.6,25.3,0.00,Rain-Thunderstorm,Light Thunderstorms and Rain,210,2013-06-01 23:00:00
6:08 PM,66.2,60.8,83,29.76,3.0,West,19.6,35.7,0.02,Rain-Thunderstorm,Thunderstorms and Rain,270,2013-06-01 23:08:00
6:15 PM,62.6,60.8,94,29.75,3.0,SW,13.8,24.2,0.05,Rain-Thunderstorm,Light Thunderstorms and Rain,230,2013-06-01 23:15:00
6:29 PM,62.6,59.0,88,29.75,5.0,SW,12.7,-,0.07,Rain-Thunderstorm,Light Thunderstorms and Rain,220,2013-06-01 23:29:00
6:56 PM,61.9,59.9,93,29.73,7.0,SSW,6.9,-,0.12,Rain-Thunderstorm,Light Thunderstorms and Rain,200,2013-06-01 23:56:00
7:31 PM,64.4,60.8,88,29.76,10.0,SW,8.1,-,0.00,,Partly Cloudy,220,2013-06-02 00:31:00
7:56 PM,63.0,61.9,96,29.74,10.0,WSW,6.9,-,0.00,,Mostly Cloudy,240,2013-06-02 00:56:00
8:56 PM,64.9,63.9,96,29.76,10.0,WSW,6.9,-,N/A,,Mostly Cloudy,240,2013-06-02 01:56:00
9:56 PM,64.9,59.0,81,29.79,10.0,West,11.5,-,N/A,,Scattered Clouds,270,2013-06-02 02:56:00
10:56 PM,63.0,59.0,87,29.80,10.0,West,9.2,-,N/A,,Partly Cloudy,260,2013-06-02 03:56:00
11:56 PM,63.0,59.0,87,29.81,10.0,West,9.2,-,N/A,,Clear,260,2013-06-02 04:56:00